{"data":{"norad_id":82642,"intl_designator":"","name":"UNKNOWN","alt_names":[],"object_type":"UNKNOWN","status":"UNKNOWN","operator":null,"country":null,"launch_date":null,"launch_site_code":null,"launch_vehicle":null,"mission":null,"orbit_class":"UNKNOWN","rcs_meters":null,"size_class":null,"mass_kg":null,"dimensions":null,"purposes":[],"wikipedia_slug":null,"has_3d_model":false,"image_url":null,"decayed_at":null,"tle_current":{"epoch":"2026-05-23T17:12:00.770112Z","epoch_age_seconds":185945,"freshness":"STALE","line1":"1 82642U          26143.71667558  .00000517  00000+0  30417-3 0  9993","line2":"2 82642  98.9729  58.2319 0134439 142.8300 218.2269 14.07864501638922","mean_motion":14.07864501,"eccentricity":0.0134439,"inclination_deg":98.9729,"raan_deg":58.2319,"arg_perigee_deg":142.83,"mean_anomaly_deg":218.2269,"bstar":0.00030417,"rev_number":63892,"period_min":102.28257044461,"perigee_km":769.28989341259,"apogee_km":964.08731529736,"semimajor_km":7244.825604355,"source":"CELESTRAK","updated_at":"2026-05-25T13:38:11.192761Z"}}}